Theta_e
325 326 322 314 314 315 309 307 309 312 315 318 320 321 323 325 328 329 331 332 334 336 338 340 342 342 342 344 348 350 351 353
321 320 312 314 313 308 311 305 303 307 308 314 318 320 322 325 327 330 333 337 342 342 346 350 352 354 356 356 356 357 356 355
319 313 312 309 309 306 310 308 307 304 309 316 318 319 321 325 328 332 335 339 343 345 347 351 354 352 351 355 355 357 360 360
317 321 318 315 310 310 307 305 307 308 310 320 320 322 324 326 331 334 337 340 344 345 344 344 345 346 345 347 347 348 354 355
310 312 314 312 309 308 309 310 308 307 310 321 323 323 324 327 330 333 335 337 339 340 340 340 341 343 343 344 346 347 347 347
310 312 311 309 309 309 309 309 308 310 313 318 320 320 323 328 331 333 334 335 336 336 338 339 340 341 342 342 345 346 346 345
315 313 311 310 310 308 309 310 310 311 314 319 321 320 324 328 331 331 332 333 334 334 335 336 337 339 340 340 342 344 343 342
309 310 311 311 312 312 311 310 312 313 313 321 323 320 323 328 329 330 331 332 334 334 333 333 335 338 340 339 342 343 341 340
309 308 309 307 312 312 313 313 314 312 317 321 315 319 324 327 329 330 330 332 333 332 333 335 336 339 339 341 343 341 338 339
310 308 301 311 316 316 315 314 315 316 318 318 318 321 325 329 330 331 332 332 334 335 335 335 337 336 336 337 340 337 334 333
307 306 309 312 315 315 315 314 317 317 317 319 323 326 325 329 331 333 334 335 334 334 336 338 335 336 335 334 333 331 330 331
309 306 304 314 317 321 319 312 318 319 317 319 324 314 320 330 332 331 332 333 331 332 334 334 334 334 332 331 330 330 330 332
312 310 312 317 320 322 311 314 319 320 320 321 318 323 325 332 332 331 331 331 334 332 330 331 331 331 330 330 330 330 331 331
311 310 306 319 320 316 321 321 320 321 322 323 325 327 330 331 330 330 330 330 330 329 329 330 331 330 329 328 329 329 329 326
313 313 319 322 321 322 323 323 323 326 327 329 327 327 329 330 329 329 328 329 330 328 328 330 330 329 326 327 328 324 322 323
316 318 319 319 322 324 326 326 327 328 327 327 326 328 328 329 328 328 328 328 328 328 327 328 329 327 326 326 326 323 322 322
315 318 320 321 324 326 327 328 327 327 327 327 327 326 327 327 328 328 327 327 328 328 327 325 322 324 325 324 323 321 320 320
314 325 324 324 326 328 326 326 327 326 325 326 327 327 327 327 329 327 326 328 328 328 323 322 322 322 321 321 321 320 317 317
322 325 323 325 327 328 327 326 326 326 327 325 327 327 327 328 327 322 328 328 326 323 322 322 321 318 318 319 320 319 317 315
Wind_Speed
7 3 1 5 4 3 6 2 3 0 2 6 1 9 12 11 12 14 13 13 12 12 12 12 11 9 6 3 4 6 9 11
2 3 5 3 8 4 1 4 4 3 4 2 3 10 9 11 13 13 15 16 15 16 16 14 13 12 12 11 9 7 5 5
3 5 7 5 4 6 4 3 2 4 3 1 7 5 3 7 10 11 13 13 13 14 13 13 13 14 12 12 12 11 10 9
1 1 2 1 3 6 3 5 1 2 2 3 1 5 7 7 8 11 12 13 13 13 14 13 13 12 11 9 8 6 5 4
5 6 4 1 3 3 6 3 5 3 2 5 6 9 7 8 8 9 12 15 14 14 13 12 11 9 7 6 6 6 6 6
1 1 1 2 4 6 2 3 7 6 6 9 8 8 7 8 9 10 11 11 11 10 9 9 8 8 8 6 6 6 6 6
4 5 3 1 1 6 5 1 5 3 9 15 11 8 7 7 7 8 8 9 8 9 8 7 7 5 5 6 5 7 8 9
3 2 5 3 2 6 4 5 3 5 5 6 7 6 7 7 6 6 6 6 6 6 5 5 4 5 6 7 8 9 11 12
3 5 2 2 1 1 2 2 5 5 4 12 8 7 7 7 5 6 5 4 3 3 4 5 7 8 9 10 9 10 12 13
3 1 5 3 1 6 1 3 4 4 13 14 11 6 5 4 6 6 5 3 1 3 5 6 8 10 11 11 10 11 12 13
5 7 2 4 5 5 2 3 5 10 12 10 9 7 3 5 4 5 3 1 4 5 6 7 9 9 10 11 11 11 12 13
4 4 5 1 2 3 3 3 10 11 14 13 9 5 3 8 7 5 3 2 5 6 6 7 8 9 10 11 12 12 13 13
3 2 2 1 1 2 3 3 10 11 11 11 5 2 5 9 6 4 4 4 5 5 6 6 8 10 12 12 12 14 14 14
2 2 4 1 3 4 4 6 9 9 7 7 6 7 7 6 5 4 5 5 5 5 7 8 10 10 12 12 14 14 14 13
3 3 2 1 2 2 6 10 6 10 8 8 8 6 6 6 5 5 4 4 5 7 8 9 10 10 12 13 14 14 13 12
5 1 5 5 4 5 7 9 9 8 9 6 7 6 6 6 5 4 3 5 6 7 9 10 11 12 11 13 14 14 14 14
3 2 2 4 4 7 9 10 10 8 6 7 8 6 6 5 4 3 4 5 5 7 8 10 10 12 12 13 14 14 13 13
4 11 4 10 10 9 10 9 8 9 7 6 5 7 6 4 4 4 4 6 7 8 8 8 10 11 12 13 13 13 12 10
2 10 4 12 9 7 8 9 8 8 8 7 5 4 4 5 5 4 5 7 7 7 7 8 8 10 12 13 13 12 11 11
Wind_Direction
229 251 227 156 197 26 105 52 253 71 232 251 247 55 32 48 60 51 57 59 62 65 58 48 38 32 14 340 283 257 244 242
152 143 55 266 130 147 80 168 208 165 279 204 354 358 16 57 66 61 62 64 66 66 63 58 56 57 56 52 49 37 9 309
236 201 174 142 165 69 100 314 218 183 207 186 293 339 61 64 67 73 74 73 73 72 71 70 67 59 54 52 45 33 27 25
241 77 360 73 144 172 213 172 48 312 138 352 3 116 110 89 73 72 76 81 80 76 73 71 69 65 58 52 49 42 39 37
151 150 115 204 128 117 106 138 175 228 116 110 131 116 102 102 87 79 72 65 66 66 64 64 63 60 54 48 36 20 3 352
55 14 54 218 149 156 294 180 152 229 160 178 157 127 117 111 90 78 75 77 79 77 73 65 57 47 32 23 9 4 353 340
287 262 201 48 82 178 210 41 241 47 198 177 162 149 129 114 102 100 94 88 81 75 62 52 39 18 2 4 358 351 344 334
279 14 135 118 104 113 117 141 95 150 172 168 143 136 148 146 141 122 110 103 90 80 60 38 1 349 342 348 357 349 338 327
321 18 343 260 347 323 99 183 154 181 151 149 149 167 167 162 170 151 137 135 121 61 8 350 5 354 338 334 328 333 331 323
253 229 215 65 278 225 227 175 178 136 153 160 157 144 154 176 186 169 177 181 216 323 342 356 352 349 339 331 325 329 326 326
201 205 283 191 182 153 204 130 172 152 143 131 126 132 158 179 177 190 176 47 345 347 336 335 348 347 335 322 327 327 329 326
174 172 195 88 124 198 175 251 164 162 157 152 152 193 165 174 186 159 108 24 351 0 354 5 353 335 325 326 326 336 336 329
174 155 155 118 133 220 222 36 152 154 154 155 179 25 109 156 140 103 73 51 38 32 6 360 349 339 330 331 341 337 333 329
151 150 193 127 163 238 84 123 132 133 142 153 141 142 130 130 118 106 99 78 37 359 355 0 358 345 339 343 341 337 337 338
234 67 321 340 327 135 153 135 138 135 152 149 131 136 149 142 129 108 79 46 15 358 342 351 356 354 343 344 338 339 337 336
192 126 81 124 144 137 134 124 139 139 140 151 158 154 136 131 132 115 53 21 359 345 352 350 355 350 348 339 339 340 338 339
87 175 166 186 170 140 122 126 128 130 145 154 152 149 148 155 154 79 32 10 359 359 357 357 350 349 347 343 341 336 341 335
233 184 162 173 164 157 145 148 142 136 127 133 155 158 167 159 106 55 26 10 7 12 6 10 352 351 349 348 343 338 334 341
79 146 92 129 133 145 137 132 122 119 124 133 138 154 152 124 82 68 33 24 20 8 8 359 359 359 355 348 347 347 340 343